N5TM-4 Weather Reports


Display with metric or nautical units.
time (UTC)temp
F
wind
direction
speed
MPH
gust
MPH
rain 1hr
in
rain 24hr
in
rain mn
in
humidity
%
barometer
mb
20260902165003 95 60 1.0 7.0 0.00 0.00 0.00 58 1015.2
20260902164606 95 286 3.0 7.0 0.00 0.00 0.00 59 1015.4
20260902164058 94 184 1.0 11.0 0.00 0.00 0.00 60 1015.4
20260902163557 93 187 2.0 11.0 0.00 0.00 0.00 61 1015.5
20260902163055 92 267 2.0 9.0 0.00 0.00 0.00 63 1015.5
20260902162554 91 240 2.0 7.0 0.00 0.00 0.00 64 1015.5
20260902162054 91 233 1.0 5.0 0.00 0.00 0.00 65 1015.6
20260902161552 91 126 2.0 8.0 0.00 0.00 0.00 66 1015.7
20260902161050 90 107 1.0 8.0 0.00 0.00 0.00 67 1015.6
20260902160550 90 309 1.0 7.0 0.00 0.00 0.00 67 1015.6
20260902160048 90 269 2.0 10.0 0.00 0.00 0.00 68 1015.6
20260902155547 90 196 0.0 10.0 0.00 0.00 0.00 69 1015.6
20260902155047 90 186 1.0 7.0 0.00 0.00 0.00 69 1015.6
20260902154546 89 155 2.0 7.0 0.00 0.00 0.00 70 1015.5
20260902154044 88 128 1.0 7.0 0.00 0.00 0.00 73 1015.5
20260902153545 87 289 2.0 7.0 0.00 0.00 0.00 76 1015.6
20260902153052 86 302 1.0 5.0 0.00 0.00 0.00 77 1015.5
20260902152543 85 305 1.0 5.0 0.00 0.00 0.00 78 1015.5
20260902152039 85 330 1.0 8.0 0.00 0.00 0.00 79 1015.5
20260902151538 85 169 1.0 8.0 0.00 0.00 0.00 80 1015.5
20260902151037 84 236 2.0 5.0 0.00 0.00 0.00 80 1015.4
20260902150535 84 166 1.0 5.0 0.00 0.00 0.00 81 1015.5
20260902150035 84 309 1.0 8.0 0.00 0.00 0.00 82 1015.4
20260902145534 83 298 1.0 8.0 0.00 0.00 0.00 82 1015.4
20260902145036 83 320 1.0 5.0 0.00 0.00 0.00 83 1015.4
20260902144532 83 261 1.0 5.0 0.00 0.00 0.00 83 1015.4
20260902144031 83 297 1.0 4.0 0.00 0.00 0.00 84 1015.4
20260902143533 82 284 1.0 4.0 0.00 0.00 0.00 84 1015.3
20260902143029 82 207 0.0 4.0 0.00 0.00 0.00 85 1015.3
20260902142529 82 223 1.0 4.0 0.00 0.00 0.00 85 1015.3
20260902142028 82 182 1.0 4.0 0.00 0.00 0.00 86 1015.3
20260902141527 81 254 0.0 4.0 0.00 0.00 0.00 86 1015.4
20260902141026 81 169 0.0 5.0 0.00 0.00 0.00 86 1015.4
20260902140525 81 226 1.0 5.0 0.00 0.00 0.00 87 1015.4
20260902140025 81 189 0.0 5.0 0.00 0.00 0.00 87 1015.4
20260902135524 81 304 1.0 6.0 0.00 0.00 0.00 88 1015.4
20260902135023 80 296 1.0 5.0 0.00 0.00 0.00 88 1015.4
20260902134523 80 205 1.0 4.0 0.00 0.00 0.00 88 1015.4
20260902134024 80 227 0.0 3.0 0.00 0.00 0.00 89 1015.3
20260902133522 80 262 1.0 3.0 0.00 0.00 0.00 89 1015.3
20260902133022 80 242 0.0 2.0 0.00 0.00 0.00 90 1015.3
20260902132525 80 240 0.0 3.0 0.00 0.00 0.00 90 1015.3
20260902132020 79 244 0.0 3.0 0.00 0.00 0.00 90 1015.2
20260902131519 79 190 0.0 3.0 0.00 0.00 0.00 90 1015.2
20260902131019 79 248 0.0 3.0 0.00 0.00 0.00 90 1015.1
20260902130519 79 248 0.0 3.0 0.00 0.00 0.00 90 1015.0
20260902130018 79 194 0.0 3.0 0.00 0.00 0.00 90 1014.9
20260902125517 79 317 0.0 5.0 0.00 0.00 0.00 90 1014.9
20260902125017 79 208 0.0 5.0 0.00 0.00 0.00 90 1014.9
20260902124516 79 129 0.0 3.0 0.00 0.00 0.00 90 1014.8
20260902124018 79 240 0.0 2.0 0.00 0.00 0.00 90 1014.6
20260902123514 79 271 0.0 5.0 0.00 0.00 0.00 90 1014.5
20260902123013 79 271 0.0 5.0 0.00 0.00 0.00 90 1014.4
20260902122512 79 215 0.0 3.0 0.00 0.00 0.00 90 1014.2
20260902122015 79 204 0.0 4.0 0.00 0.00 0.00 90 1014.0
20260902121511 79 210 0.0 4.0 0.00 0.00 0.00 89 1014.0
20260902121011 79 269 0.0 4.0 0.00 0.00 0.00 89 1013.9
20260902120510 79 272 0.0 4.0 0.00 0.00 0.00 89 1013.9
20260902120009 79 213 0.0 3.0 0.00 0.00 0.00 89 1013.9
20260902115509 79 213 0.0 2.0 0.00 0.00 0.00 89 1014.0
20260902115009 79 213 0.0 3.0 0.00 0.00 0.00 89 1014.0
20260902114510 79 205 0.0 3.0 0.00 0.00 0.00 89 1014.0
20260902114010 79 211 0.0 6.0 0.00 0.00 0.00 89 1014.0
20260902113508 79 205 1.0 6.0 0.00 0.00 0.00 89 1014.0
20260902113011 79 214 0.0 3.0 0.00 0.00 0.00 89 1014.1
20260902112509 79 233 1.0 2.0 0.00 0.00 0.00 89 1014.0
20260902112008 79 235 0.0 3.0 0.00 0.00 0.00 89 1014.0
20260902111508 79 176 0.0 3.0 0.00 0.00 0.00 89 1013.9
20260902111008 79 192 0.0 2.0 0.00 0.00 0.00 88 1014.0
20260902110510 79 192 0.0 2.0 0.00 0.00 0.00 88 1013.9
20260902110021 79 191 0.0 3.0 0.00 0.00 0.00 88 1014.0
20260902105510 79 192 0.0 3.0 0.00 0.00 0.00 88 1014.1
20260902105007 79 173 0.0 2.0 0.00 0.00 0.00 88 1014.1
20260902104514 79 173 0.0 3.0 0.00 0.00 0.00 88 1014.0
20260902104006 79 173 0.0 3.0 0.00 0.00 0.00 88 1014.0
20260902103505 79 237 0.0 3.0 0.00 0.00 0.00 87 1014.0
20260902103010 79 211 0.0 1.0 0.00 0.00 0.00 87 1014.0
20260902102504 79 211 0.0 2.0 0.00 0.00 0.00 87 1014.0
20260902102005 79 211 0.0 4.0 0.00 0.00 0.00 87 1013.9
20260902101503 79 210 0.0 4.0 0.00 0.00 0.00 87 1013.8
20260902101003 79 196 0.0 2.0 0.00 0.00 0.00 87 1013.7
20260902100504 79 196 0.0 6.0 0.00 0.00 0.00 87 1013.6
20260902100007 80 216 1.0 6.0 0.00 0.00 0.00 87 1013.7
20260902095502 80 256 0.0 3.0 0.00 0.00 0.00 87 1013.7
20260902095002 80 132 0.0 3.0 0.00 0.00 0.00 86 1013.7
20260902094502 80 199 0.0 4.0 0.00 0.00 0.00 86 1013.7
20260902094003 80 276 1.0 4.0 0.00 0.00 0.00 86 1013.7
20260902093504 80 165 0.0 3.0 0.00 0.00 0.00 86 1013.8
20260902093002 80 146 0.0 3.0 0.00 0.00 0.00 86 1013.9
20260902092502 80 54 0.0 3.0 0.00 0.00 0.00 86 1013.9
20260902092004 80 250 0.0 6.0 0.00 0.00 0.00 86 1013.9
20260902091502 80 169 1.0 6.0 0.00 0.00 0.00 86 1013.9
20260902091001 80 248 0.0 3.0 0.00 0.00 0.00 85 1013.8
20260902090501 80 248 0.0 3.0 0.00 0.00 0.00 85 1013.7
20260902090101 80 259 0.0 5.0 0.00 0.00 0.00 85 1013.7
20260902085600 80 158 0.0 5.0 0.00 0.00 0.00 85 1013.7
20260902085100 80 196 0.0 3.0 0.00 0.00 0.00 85 1013.7
20260902084602 80 236 0.0 4.0 0.00 0.00 0.00 85 1013.8
20260902084101 80 202 1.0 4.0 0.00 0.00 0.00 85 1013.7
20260902083600 80 262 1.0 4.0 0.00 0.00 0.00 84 1013.7
20260902083059 80 154 0.0 4.0 0.00 0.00 0.00 84 1013.8
20260902082600 80 293 0.0 3.0 0.00 0.00 0.00 84 1013.7
20260902082059 80 334 0.0 5.0 0.00 0.00 0.00 84 1013.7
20260902081559 80 192 0.0 5.0 0.00 0.00 0.00 84 1013.8
20260902081059 80 263 0.0 5.0 0.00 0.00 0.00 83 1013.8
20260902080558 80 126 0.0 3.0 0.00 0.00 0.00 83 1013.7
20260902080058 80 142 0.0 3.0 0.00 0.00 0.00 83 1013.7
20260902075601 80 252 0.0 3.0 0.00 0.00 0.00 83 1013.8
20260902075058 80 251 0.0 4.0 0.00 0.00 0.00 83 1013.8
20260902074557 80 226 1.0 4.0 0.00 0.00 0.00 83 1013.9
20260902074058 80 248 0.0 3.0 0.00 0.00 0.00 82 1013.9
20260902073556 80 248 0.0 5.0 0.00 0.00 0.00 82 1013.9
20260902073056 80 260 0.0 5.0 0.00 0.00 0.00 82 1013.9
20260902072555 80 227 0.0 4.0 0.00 0.00 0.00 82 1013.9
20260902072059 80 163 0.0 4.0 0.00 0.00 0.00 82 1013.9
20260902071556 80 209 0.0 4.0 0.00 0.00 0.00 82 1013.9
20260902071054 80 207 0.0 3.0 0.00 0.00 0.00 82 1014.0
20260902070554 80 218 0.0 4.0 0.00 0.00 0.00 82 1014.0
20260902070053 80 199 0.0 4.0 0.00 0.00 0.00 82 1014.0
20260902065553 80 197 0.0 3.0 0.00 0.00 0.00 82 1013.9
20260902065055 80 208 0.0 2.0 0.00 0.00 0.00 82 1013.9
20260902064602 80 208 0.0 2.0 0.00 0.00 0.00 81 1013.8
20260902064052 80 208 0.0 2.0 0.00 0.00 0.00 81 1013.8
20260902063552 80 204 0.0 4.0 0.00 0.00 0.00 81 1013.7
20260902063104 80 198 0.0 4.0 0.00 0.00 0.00 81 1013.7
20260902062551 80 200 0.0 2.0 0.00 0.00 0.00 81 1013.7
20260902062051 80 198 0.0 3.0 0.00 0.00 0.00 81 1013.6
20260902061609 80 194 0.0 3.0 0.00 0.00 0.00 80 1013.5
20260902061057 80 218 0.0 3.0 0.00 0.00 0.00 80 1013.5
20260902060548 80 219 0.0 3.0 0.00 0.00 0.00 79 1013.6
20260902060049 80 225 0.0 3.0 0.00 0.00 0.00 79 1013.6
20260902055548 79 225 0.0 3.0 0.00 0.00 0.00 79 1013.6
20260902055048 79 78 0.0 2.0 0.00 0.00 0.00 79 1013.7
20260902054547 80 77 0.0 1.0 0.00 0.00 0.00 79 1013.7
20260902054047 80 77 0.0 1.0 0.00 0.00 0.00 78 1013.9
20260902053546 80 77 0.0 1.0 0.00 0.00 0.00 78 1014.0
20260902053045 80 77 0.0 1.0 0.00 0.00 0.00 78 1014.0
20260902052546 80 77 0.0 1.0 0.00 0.00 0.00 78 1013.9
20260902052044 80 77 0.0 1.0 0.00 0.00 0.00 78 1013.9
20260902051557 80 77 0.0 1.0 0.00 0.00 0.00 78 1013.9
20260902051043 80 77 0.0 1.0 0.00 0.00 0.00 78 1013.9
20260902050542 80 77 0.0 0.0 0.00 0.00 0.00 78 1014.0
20260902050042 80 77 0.0 0.0 0.00 0.00 0.00 78 1014.0
20260902045541 80 77 0.0 0.0 0.00 0.00 0.00 78 1014.0
20260902045041 80 77 0.0 1.0 0.00 0.00 0.00 78 1014.1
20260902044603 80 77 0.0 1.0 0.00 0.00 0.00 77 1014.0
20260902044040 80 77 0.0 1.0 0.00 0.00 0.00 77 1014.0
20260902043542 80 77 0.0 0.0 0.00 0.00 0.00 77 1013.9
20260902043046 80 77 0.0 0.0 0.00 0.00 0.00 77 1013.9
20260902042541 80 77 0.0 0.0 0.00 0.00 0.00 78 1013.9
20260902042040 80 77 0.0 0.0 0.00 0.00 0.00 78 1013.9
20260902041545 80 77 0.0 0.0 0.00 0.00 0.00 78 1013.9
20260902041040 80 77 0.0 0.0 0.00 0.00 0.00 78 1014.1
20260902040540 80 77 0.0 1.0 0.00 0.00 0.00 78 1014.1
20260902040040 81 77 0.0 1.0 0.00 0.00 0.00 78 1014.2
20260902035540 81 77 0.0 2.0 0.00 0.00 0.00 78 1014.2
20260902035039 81 77 0.0 2.0 0.00 0.00 0.00 77 1014.3
20260902034539 81 69 0.0 2.0 0.00 0.00 0.00 77 1014.3
20260902034039 81 69 0.0 1.0 0.00 0.00 0.00 77 1014.3
20260902033539 81 69 0.0 0.0 0.00 0.00 0.00 76 1014.3
20260902033039 81 69 0.0 0.0 0.00 0.00 0.00 76 1014.2
20260902032538 81 69 0.0 0.0 0.00 0.00 0.00 76 1014.1
20260902032038 81 69 0.0 0.0 0.00 0.00 0.00 76 1014.1
20260902031553 81 69 0.0 1.0 0.00 0.00 0.00 76 1014.1
20260902031039 81 69 0.0 1.0 0.00 0.00 0.00 76 1014.0
20260902030541 82 69 0.0 0.0 0.00 0.00 0.00 75 1013.9
20260902030038 82 69 0.0 1.0 0.00 0.00 0.00 75 1013.7
20260902025542 82 69 0.0 1.0 0.00 0.00 0.00 76 1013.7
20260902025038 82 69 0.0 1.0 0.00 0.00 0.00 75 1013.7
20260902024542 82 69 0.0 1.0 0.00 0.00 0.00 75 1013.6
20260902024037 82 69 0.0 1.0 0.00 0.00 0.00 75 1013.6
20260902023537 82 69 0.0 1.0 0.00 0.00 0.00 75 1013.5
20260902023038 82 69 0.0 1.0 0.00 0.00 0.00 75 1013.4
20260902022537 82 69 0.0 1.0 0.00 0.00 0.00 75 1013.5
20260902022036 82 69 0.0 1.0 0.00 0.00 0.00 74 1013.5
20260902021538 82 69 0.0 1.0 0.00 0.00 0.00 74 1013.3
20260902021036 82 69 0.0 1.0 0.00 0.00 0.00 74 1013.2
20260902020539 82 69 0.0 1.0 0.00 0.00 0.00 74 1013.2
20260902020039 82 69 0.0 1.0 0.00 0.00 0.00 74 1013.1
20260902015537 83 69 0.0 1.0 0.00 0.00 0.00 73 1013.0
20260902015036 83 69 0.0 2.0 0.00 0.00 0.00 73 1012.9
20260902014539 83 69 0.0 2.0 0.00 0.00 0.00 73 1012.8
20260902014039 83 69 0.0 2.0 0.00 0.00 0.00 72 1012.7
20260902013535 83 69 0.0 2.0 0.00 0.00 0.00 72 1012.6
20260902013035 83 69 0.0 2.0 0.00 0.00 0.00 72 1012.6
20260902012535 84 69 0.0 2.0 0.00 0.00 0.00 72 1012.5
20260902012034 84 69 0.0 2.0 0.00 0.00 0.00 71 1012.5
20260902011534 84 69 0.0 2.0 0.00 0.00 0.00 70 1012.5
20260902011037 84 69 0.0 1.0 0.00 0.00 0.00 69 1012.5
20260902010533 84 69 0.0 1.0 0.00 0.00 0.00 68 1012.6
20260902010037 84 69 0.0 1.0 0.00 0.00 0.00 68 1012.7
20260902005533 84 69 0.0 1.0 0.00 0.00 0.00 68 1012.7
20260902005033 84 69 0.0 2.0 0.00 0.00 0.00 68 1012.7
20260902004535 84 69 0.0 2.0 0.00 0.00 0.00 68 1012.9
20260902004032 84 69 0.0 2.0 0.00 0.00 0.00 68 1012.8
20260902003532 84 69 1.0 2.0 0.00 0.00 0.00 68 1012.8
20260902003033 84 69 0.0 3.0 0.00 0.00 0.00 68 1012.7
20260902002532 85 69 0.0 3.0 0.00 0.00 0.00 68 1012.8
20260902002032 85 69 1.0 3.0 0.00 0.00 0.00 68 1012.7
20260902001532 85 68 1.0 4.0 0.00 0.00 0.00 68 1012.7
20260902001034 85 84 2.0 6.0 0.00 0.00 0.00 68 1012.7
20260902000531 85 65 0.0 6.0 0.00 0.00 0.00 68 1012.7
20260902000031 85 76 2.0 6.0 0.00 0.00 0.00 69 1012.6
20260901235532 85 85 0.0 5.0 0.00 0.00 0.00 70 1012.6
20260901235034 85 71 1.0 5.0 0.00 0.00 0.00 70 1012.6
20260901234530 85 52 1.0 8.0 0.00 0.00 0.00 70 1012.7
20260901234030 85 16 3.0 9.0 0.00 0.00 0.00 70 1012.7
20260901233530 85 13 2.0 9.0 0.00 0.00 0.00 70 1012.7
20260901233030 85 57 2.0 9.0 0.00 0.00 0.00 69 1012.7
20260901232529 86 46 4.0 11.0 0.00 0.00 0.00 69 1012.7
20260901232029 86 63 3.0 11.0 0.00 0.00 0.00 68 1012.8
20260901231534 87 107 4.0 11.0 0.00 0.00 0.00 68 1012.8
20260901231028 88 95 5.0 11.0 0.00 0.00 0.00 66 1012.7
20260901230529 88 136 1.0 4.0 0.00 0.00 0.00 62 1012.8
20260901230029 88 91 1.0 4.0 0.00 0.00 0.00 61 1012.8
20260901225527 88 132 2.0 6.0 0.00 0.00 0.00 61 1012.7
20260901225027 88 117 2.0 6.0 0.00 0.00 0.00 60 1012.8
20260901224527 88 136 1.0 5.0 0.00 0.00 0.00 60 1012.8
20260901224030 88 132 2.0 5.0 0.00 0.00 0.00 60 1012.9
20260901223528 88 122 2.0 4.0 0.00 0.00 0.00 60 1012.8
20260901223027 88 146 2.0 4.0 0.00 0.00 0.00 59 1012.8
20260901222527 88 106 2.0 4.0 0.00 0.00 0.00 60 1012.8
20260901222031 89 124 2.0 4.0 0.00 0.00 0.00 60 1012.8
20260901221526 89 171 2.0 4.0 0.00 0.00 0.00 59 1012.8
20260901221026 89 120 2.0 4.0 0.00 0.00 0.00 58 1012.9
20260901220525 89 109 1.0 4.0 0.00 0.00 0.00 57 1012.8
20260901220025 90 125 1.0 4.0 0.00 0.00 0.00 54 1012.9
20260901215527 90 125 1.0 4.0 0.00 0.00 0.00 54 1013.1
20260901215022 90 65 1.0 3.0 0.00 0.00 0.00 55 1013.1
20260901214523 90 64 1.0 3.0 0.00 0.00 0.00 51 1013.2
20260901214023 90 63 1.0 3.0 0.00 0.00 0.00 50 1013.3
20260901213522 90 65 1.0 3.0 0.00 0.00 0.00 51 1013.4
20260901213027 90 11 0.0 3.0 0.00 0.00 0.00 53 1013.4
20260901212522 90 13 1.0 3.0 0.00 0.00 0.00 54 1013.3
20260901212023 90 78 1.0 5.0 0.00 0.00 0.00 57 1013.3
20260901211522 90 11 1.0 5.0 0.00 0.00 0.00 57 1013.3
20260901211025 90 109 0.0 3.0 0.00 0.00 0.00 56 1013.2
20260901210521 89 110 1.0 3.0 0.00 0.00 0.00 58 1013.1
20260901210021 89 121 0.0 4.0 0.00 0.00 0.00 58 1013.1
20260901205522 89 121 3.0 4.0 0.00 0.00 0.00 58 1013.1
20260901205021 89 118 1.0 4.0 0.00 0.00 0.00 57 1013.1
20260901204522 90 117 1.0 5.0 0.00 0.00 0.00 57 1013.1
20260901204019 91 25 1.0 6.0 0.00 0.00 0.00 57 1013.3
20260901203519 91 13 2.0 6.0 0.00 0.00 0.00 55 1013.4
20260901203018 91 350 2.0 8.0 0.00 0.00 0.00 54 1013.5
20260901202516 91 355 3.0 10.0 0.00 0.00 0.00 54 1013.6
20260901202019 91 17 4.0 11.0 0.00 0.00 0.00 52 1013.7
20260901201515 91 348 3.0 10.0 0.00 0.00 0.00 51 1013.9
20260901201016 92 32 4.0 9.0 0.00 0.00 0.00 51 1014.0
20260901200514 92 67 3.0 11.0 0.00 0.00 0.00 51 1014.1
20260901200016 93 351 4.0 11.0 0.00 0.00 0.00 52 1014.0
20260901195513 93 259 4.0 9.0 0.00 0.00 0.00 53 1014.2
20260901195012 93 110 4.0 9.0 0.00 0.00 0.00 53 1014.2
20260901194512 93 108 2.0 8.0 0.00 0.00 0.00 54 1014.2
20260901194016 93 71 3.0 8.0 0.00 0.00 0.00 54 1014.3
20260901193614 93 109 1.0 7.0 0.00 0.00 0.00 54 1014.2
20260901193011 93 114 2.0 7.0 0.00 0.00 0.00 53 1014.2
20260901192513 94 322 2.0 5.0 0.00 0.00 0.00 53 1014.2
20260901192009 93 328 1.0 5.0 0.00 0.00 0.00 56 1014.2
20260901191513 92 328 2.0 5.0 0.00 0.00 0.00 56 1014.2
20260901191009 92 360 2.0 8.0 0.00 0.00 0.00 56 1014.3
20260901190507 91 78 3.0 8.0 0.00 0.00 0.00 56 1014.3
20260901190006 91 86 3.0 10.0 0.00 0.00 0.00 56 1014.4
20260901185505 91 23 3.0 10.0 0.00 0.00 0.00 57 1014.5
20260901185004 91 108 2.0 7.0 0.00 0.00 0.00 56 1014.5
20260901184504 92 58 1.0 6.0 0.00 0.00 0.00 56 1014.6
20260901184003 91 227 2.0 6.0 0.00 0.00 0.00 57 1014.6
20260901183603 91 86 3.0 7.0 0.00 0.00 0.00 56 1014.7
20260901183008 91 78 3.0 7.0 0.00 0.00 0.00 54 1014.7
20260901182502 92 111 2.0 9.0 0.00 0.00 0.00 57 1014.8
20260901182001 92 37 1.0 9.0 0.00 0.00 0.00 56 1014.8
20260901181600 92 355 3.0 9.0 0.00 0.00 0.00 57 1014.9
20260901181059 91 5 2.0 5.0 0.00 0.00 0.00 59 1014.9
20260901180558 91 77 1.0 5.0 0.00 0.00 0.00 59 1014.9
20260901180057 91 313 2.0 6.0 0.00 0.00 0.00 60 1015.0
20260901175557 90 22 3.0 9.0 0.00 0.00 0.00 60 1015.0
20260901175056 90 5 4.0 9.0 0.00 0.00 0.00 61 1015.1
20260901174554 89 98 3.0 8.0 0.00 0.00 0.00 61 1015.3
20260901174054 89 76 3.0 6.0 0.00 0.00 0.00 62 1015.4
20260901173556 89 17 2.0 6.0 0.00 0.00 0.00 63 1015.6
20260901173119 89 76 2.0 6.0 0.00 0.00 0.00 63 1015.7
20260901172550 88 11 2.0 8.0 0.00 0.00 0.00 63 1015.8
20260901172050 88 54 3.0 11.0 0.00 0.00 0.00 64 1015.9
20260901171555 88 12 3.0 8.0 0.00 0.00 0.00 64 1016.0
20260901171049 88 329 2.0 6.0 0.00 0.00 0.00 66 1016.1
20260901170550 88 70 2.0 9.0 0.00 0.00 0.00 65 1016.1
20260901170055 88 12 3.0 9.0 0.00 0.00 0.00 65 1016.2
20260901165548 88 33 3.0 8.0 0.00 0.00 0.00 66 1016.3